ARIANE 42P R/B, 22079

Orbit data source: Space-Track

ARIANE 42P R/B, 22079 is space debris in LEO originally from a launch on Mon, 10 Aug 1992 UTC launched from the French Guiana (FRGUI). Debris objects in space refer to the collection of defunct objects orbiting the Earth. Examples of debris include non-operational satellites, rocket bodies, and fragments generated from explosions, collisions, or faulty payload assembly.

Loading next visibility...
Identifier
22079, 1992-052D
Orbit
LEO
Last TLE update
12 hours ago
Origin
Manufacturer
Ae/LesM
Mission
Spacecraft
Bus & Motor
ARIANE H10, Unknown motor
Mass
1,875 kg wet, 1,820 kg dry
Launch date (UTC)
1992-08-10 (33 years ago)
Launch vehicle
Unknown
Launch site
French Guiana (FRGUI)
Object type
Payload
Rocket body
Debris
Shape & HBR
Cyl, 12.1 m
Radar Cross Section
27.363 m², Large (>1 m²)

Expand to show TLE details & history

TLE from 12 hours ago
0 ARIANE 42P R/B
1 22079U 92052D   25132.93037689 -.00000020  00000-0  18228-3 0  9993
2 22079  66.0676  52.1390 0062317 129.7085 297.8633 12.77946236528240
Epoch: 2025-05-12T22:19Z
Definitive object data (Epoch: 2025-05-12T22:19:44.563Z)
Latitude
57.35585°
Longitude
-110.15489°
Altitude
1,336.205 km
Speed
7.206 km/s
True Right ascension
06h 22m 52s
True Declination
57° 12' 40"
Sunlit
Object was in daylight at TLE epoch
Visualization TLE readout
Latitude
3.85207°
Longitude
23.54602°
Altitude
1,317.753 km
Speed
7.214 km/s
Apparent Right ascension
12h 39m 08s
Apparent Declination
-31° 25' 33"
Sunlit
Object is in full shadow
Visualization observer readout
Local Sidereal Time
18:34:47
Azimuth
244.317° WSW
Elevation
-18.793°
Doppler factor
1
Orbital elements
Apogee altitude
1,396.449 km
Perigee altitude
1,300.152 km
Semi-major axis
7,726.438 km
Eccentricity
0.0062317
Inclination
66.0676°
RAAN
52.139°
Arg. of periapsis
129.7085°
True anomaly
297.2297°
Mean anomaly
297.8633°
Eccentric anomaly
297.54673°
Mean motion
3.19576 °/min
BSTAR
0.00018228
Orbital period
112.65 mins
Loading maneuver chart data...
Loading SW <> Apogee altitude chart data...
Loading historical data...
Loading historical data...
Loading historical data...
Loading historical data...
Loading historical data...
Loading historical data...
Loading historical data...

ARIANE 42P R/B Visibility forecast

Observer location: undefined°, undefined°

Span
Click to sort rows by Start time (UTC) header in descending order
Start Az.
Max El. time (UTC)
Max El. Az.
Max El.
End time (UTC)
End Az.
12 mins2025-05-13 18:44:35.002Z153.814° SSE2025-05-13 18:50:35.002Z101.965° ESE23.98°2025-05-13 18:56:35.002Z53.238° ENE
14 mins2025-05-13 20:39:35.002Z223.338° SW2025-05-13 20:45:35.002Z291.714° WNW42.75°2025-05-13 20:53:35.002Z25.737° NE
9 mins2025-05-13 22:39:35.002Z292.338° WNW2025-05-13 22:43:35.002Z325.804° NNW18.135°2025-05-13 22:48:35.002Z6.501° NNE
7 mins2025-05-14 02:41:35.002Z4.416° NNE2025-05-14 02:44:35.002Z29.366° NE15.612°2025-05-14 02:48:35.002Z61.559° ENE
13 mins2025-05-14 04:36:35.002Z340.462° N2025-05-14 04:42:35.002Z49.367° ENE39.683°2025-05-14 04:49:35.002Z129.584° SE
11 mins2025-05-14 06:33:35.002Z302.913° NW2025-05-14 06:38:35.002Z251.759° W27.962°2025-05-14 06:44:35.002Z196.96° SSW
|